Vertical_Velocity
1 -1 2 -3 -3 2 2 4 1 -2 -1 1 -2 2 -3 1 -1 -2 1 0 -2 0 -3 -2 -2 -1 -0 -1 -2 -2 -1 -0 -2 -0 -1 -1 -2 -2 -1 -1 -2 -2 -2
2 1 3 -2 -3 4 -2 3 1 0 -3 1 -2 2 -3 -1 -0 -1 3 2 1 1 -4 -0 -2 -3 -3 -2 0 -1 -0 -0 2 -1 -0 0 -0 0 -1 -1 -1 -1 -1
1 6 2 1 0 -1 -4 4 -5 -1 -2 1 -2 3 -3 -0 -3 0 0 2 2 -0 -4 -3 0 -2 -1 -0 -1 1 1 -1 -0 1 0 0 1 1 1 -0 -1 -1 -0
2 -0 1 -0 -0 -2 1 5 3 -6 -0 1 -1 1 -0 -2 -0 -0 1 1 3 0 -1 -5 2 -1 1 1 1 -1 0 1 -0 -2 -2 -2 -2 -2 -2 -2 -3 -2 -2
4 -0 1 2 0 -1 -2 2 3 -4 1 -2 4 -1 -2 -5 0 -1 -1 1 3 1 0 -3 -2 1 -1 -0 -1 -0 1 -0 -0 -1 -3 -2 -3 -4 -4 -3 -2 -2 -3
5 0 3 3 1 0 -2 -2 2 1 -1 -6 4 -0 -2 -5 4 1 -3 -1 2 -1 1 1 -3 -0 -1 0 -1 1 -2 -1 -1 -1 -1 -1 -3 -3 -2 -2 -4 -5 -3
0 1 3 -0 -2 3 4 -3 -2 4 3 -2 -2 1 -3 -4 1 1 1 -4 5 -2 -1 2 1 -3 -3 0 -1 -0 0 -1 1 2 0 -1 -2 -1 -1 -3 -3 -2 -2
-1 2 1 4 0 2 -3 -0 -1 7 1 1 -2 -2 -3 -3 -2 -1 0 -1 3 -0 -2 1 0 -2 -2 -3 -1 -3 -0 3 -0 0 1 -0 -2 -2 -2 -1 -1 -2 -2
0 -1 1 3 4 -0 3 1 1 7 5 5 -4 0 -2 -3 -3 1 -1 1 1 1 -2 1 2 -2 -1 -2 1 -1 -2 -1 -1 0 -1 -2 -1 -2 -2 -2 -1 -2 -3
-4 6 1 2 2 2 -2 4 1 2 4 6 -4 1 -0 -1 -1 -1 -2 1 4 0 -2 -0 0 -1 -1 -2 -2 -0 -3 -2 -1 1 0 -0 -2 -3 -2 -3 -2 -2 -2
-3 2 2 -1 0 2 -2 -1 -4 4 -0 1 3 -1 1 -4 -1 -1 -2 -1 3 2 0 -3 0 -0 -1 1 -2 -1 -1 -1 -1 -2 -0 -1 -2 -3 -2 -1 -1 -2 -2
3 4 -1 3 0 0 -5 2 -1 -0 -2 2 -0 -0 -0 0 -1 -0 -3 -2 -3 2 -0 -2 -0 -2 -1 -1 -3 -1 -4 0 -2 -2 -3 -2 -1 -1 -2 -2 -2 -3 -2
-5 -5 -4 -3 -1 2 3 2 3 5 3 1 1 2 -2 -1 -0 2 -3 -1 -2 2 1 0 -1 -1 -2 -1 -1 1 -3 -2 -2 -2 -3 0 3 1 -0 -1 -3 -3 -3
13 -3 5 2 3 1 3 0 -3 2 -0 -1 2 0 -3 0 -1 4 -1 -2 -2 -1 5 -1 -1 -3 -1 -1 -2 -1 -2 -1 -0 -1 1 -0 -3 -3 -3 -2 -1 -2 -3
7 -1 -2 -4 -2 1 1 3 0 -2 3 1 -1 2 0 -1 1 2 0 -3 -1 1 2 1 -5 -1 -1 -0 -0 -2 -2 -1 -2 -2 -1 -2 -1 -2 -3 -4 -3 -1 -3
1 10 2 -3 -6 4 3 0 1 -1 2 -0 1 1 3 -0 -3 2 0 -1 -2 -1 1 1 -0 -3 1 -1 0 -1 0 -0 1 -1 2 0 -0 -2 -1 -1 -2 -2 -4
2 -6 4 0 4 -0 3 1 0 1 -3 1 -2 2 3 -0 -0 -0 0 2 -2 -3 -1 0 1 -2 1 -3 -1 -1 -2 -0 -0 -3 -4 -0 -2 -1 -3 -1 -2 -1 -2
-13 -11 -0 -1 6 5 -2 -2 4 -2 -2 -2 4 -1 2 5 1 -2 -2 2 -1 -5 -1 -1 -2 -2 0 -2 -1 0 -0 0 -1 0 -1 -5 -0 -4 -4 -2 -3 -1 -3
4 7 -10 -2 4 -1 -1 -3 -4 2 2 -2 1 0 3 1 0 2 -2 1 1 -7 1 -1 -2 -0 -2 -2 -1 -2 -4 -2 -5 -3 0 -4 2 -1 -1 -0 -2 -2 -1
-8 4 -5 3 -1 -2 -3 -4 2 -2 -1 1 -1 -1 2 -1 3 2 -1 0 -1 -4 -0 -4 0 -0 -1 -3 -2 -3 4 -1 4 -4 -0 -2 4 1 0 0 -6 -4 0
7 9 -3 5 4 3 5 1 3 -2 3 -0 -2 1 2 2 1 0 0 3 -2 -1 -1 -1 1 -0 -3 -4 -3 -5 -4 -1 7 -2 1 -1 -1 4 4 8 0 -0 -2
-7 7 0 1 -4 1 8 -0 1 -3 2 -3 -1 4 2 2 1 -0 -0 0 1 -3 0 -0 -1 1 -2 -4 -1 -3 -6 -7 1 0 -6 19 -14 8 2 3 1 3 -4
2 -7 -4 -12 -2 3 4 -1 -1 1 -5 -0 -2 -0 2 2 2 0 2 2 1 1 1 -1 4 -2 -1 -6 1 -1 -3 -5 -3 2 -15 9 -4 -0 -0 6 5 5 -4
-9 -5 -12 -6 -2 2 3 -0 2 -4 -1 -2 -1 1 1 3 1 4 0 3 1 2 2 2 1 -2 -2 -4 -4 -3 -3 -2 1 1 -16 -17 -2 4 5 8 12 12 -3
-15 -3 6 0 -11 2 1 -3 -7 5 4 -1 -1 4 1 -0 7 -2 2 1 1 0 0 1 -1 -3 -2 -2 -3 -1 -5 -6 1 6 -7 -12 -1 -11 -1 9 14 11 -4
8 -5 1 -0 -2 -0 -1 -5 -7 -2 1 2 -4 -0 1 10 0 -0 0 9 -0 3 0 -2 -1 -1 -3 -2 -4 -1 -2 -3 -7 4 -13 -12 -0 -29 -24 5 7 4 -4
Height
3137 3141 3144 3148 3152 3155 3159 3162 3165 3167 3170 3172 3174 3176 3178 3179 3181 3182 3183 3184 3186 3187 3186 3186 3186 3187 3187 3186 3184 3183 3183 3181 3180 3179 3178 3176 3175 3173 3172 3170 3169 3168 3167
3133 3136 3141 3145 3149 3153 3156 3159 3163 3165 3168 3171 3173 3175 3177 3178 3179 3180 3181 3183 3185 3186 3185 3184 3185 3185 3185 3184 3183 3182 3181 3181 3180 3179 3178 3176 3174 3173 3171 3169 3168 3166 3165
3129 3132 3138 3142 3146 3150 3153 3157 3161 3164 3167 3169 3171 3173 3176 3176 3177 3178 3178 3180 3183 3184 3184 3183 3184 3183 3183 3182 3182 3181 3179 3179 3178 3177 3176 3175 3173 3171 3170 3168 3166 3164 3162
3123 3128 3134 3138 3142 3147 3151 3155 3158 3161 3165 3167 3169 3172 3175 3175 3174 3176 3176 3178 3180 3182 3182 3181 3181 3182 3181 3181 3180 3179 3177 3176 3176 3175 3175 3174 3172 3171 3168 3166 3164 3162 3160
3118 3124 3129 3133 3138 3144 3149 3152 3155 3159 3162 3164 3167 3170 3173 3174 3173 3174 3175 3176 3178 3180 3179 3179 3179 3180 3179 3178 3177 3177 3176 3175 3175 3174 3173 3173 3171 3169 3167 3164 3161 3159 3157
3114 3119 3124 3127 3133 3139 3144 3149 3152 3155 3159 3162 3164 3167 3171 3171 3171 3172 3173 3173 3176 3177 3176 3177 3177 3177 3176 3175 3174 3173 3172 3171 3171 3170 3170 3168 3166 3165 3163 3161 3159 3156 3154
3108 3114 3120 3123 3129 3135 3140 3145 3149 3152 3156 3159 3162 3164 3167 3169 3169 3170 3170 3171 3172 3175 3173 3174 3174 3174 3174 3172 3172 3169 3168 3168 3166 3165 3164 3162 3161 3160 3159 3157 3155 3152 3150
3103 3110 3116 3121 3125 3130 3134 3140 3145 3149 3152 3155 3159 3161 3164 3167 3167 3167 3168 3169 3169 3172 3171 3170 3171 3171 3170 3169 3168 3167 3164 3163 3162 3161 3159 3158 3157 3155 3153 3151 3149 3146 3143
3097 3105 3110 3116 3121 3126 3131 3137 3141 3145 3148 3150 3154 3158 3160 3162 3164 3164 3165 3166 3166 3167 3167 3167 3167 3168 3166 3165 3165 3164 3162 3160 3159 3157 3155 3154 3152 3150 3147 3144 3142 3139 3136
3092 3099 3104 3110 3116 3122 3128 3132 3136 3140 3144 3146 3149 3153 3155 3158 3159 3161 3162 3162 3162 3163 3163 3163 3163 3163 3163 3161 3161 3160 3158 3156 3154 3152 3150 3148 3147 3144 3141 3139 3135 3132 3129
3087 3093 3099 3105 3110 3117 3122 3127 3132 3134 3139 3142 3145 3148 3151 3153 3155 3156 3157 3159 3159 3159 3159 3159 3159 3158 3158 3157 3156 3155 3153 3152 3151 3148 3145 3143 3141 3138 3135 3132 3129 3125 3121
3080 3085 3092 3099 3107 3113 3118 3123 3126 3129 3134 3137 3140 3143 3146 3149 3150 3151 3152 3154 3154 3155 3154 3154 3154 3154 3153 3152 3151 3150 3148 3146 3145 3143 3140 3136 3134 3132 3129 3126 3122 3118 3114
3073 3081 3088 3095 3103 3109 3112 3117 3119 3124 3127 3133 3135 3137 3140 3143 3145 3147 3148 3149 3149 3150 3149 3149 3148 3148 3147 3146 3145 3145 3142 3140 3138 3137 3133 3129 3127 3124 3121 3118 3114 3110 3106
3071 3078 3083 3090 3097 3103 3107 3112 3116 3120 3123 3127 3130 3132 3135 3137 3139 3141 3143 3144 3144 3144 3144 3143 3143 3142 3141 3140 3139 3138 3136 3134 3131 3129 3126 3123 3120 3117 3113 3110 3106 3102 3097
3063 3072 3079 3085 3091 3097 3102 3105 3109 3115 3117 3121 3124 3125 3129 3131 3133 3135 3137 3138 3138 3138 3138 3138 3137 3137 3135 3134 3132 3132 3129 3127 3124 3122 3118 3115 3112 3109 3105 3100 3097 3092 3087
3058 3066 3072 3079 3085 3088 3092 3097 3102 3106 3109 3114 3116 3118 3123 3124 3127 3128 3130 3131 3132 3132 3132 3132 3131 3131 3129 3127 3125 3125 3122 3120 3116 3114 3111 3107 3104 3100 3095 3090 3087 3082 3077
3054 3063 3068 3074 3078 3082 3086 3090 3094 3098 3102 3106 3107 3111 3116 3117 3120 3121 3123 3124 3125 3125 3125 3125 3125 3124 3122 3120 3119 3117 3115 3113 3110 3106 3102 3098 3095 3091 3086 3081 3077 3072 3067
3049 3057 3062 3067 3070 3074 3077 3081 3086 3091 3094 3097 3100 3103 3108 3109 3113 3114 3116 3116 3117 3118 3118 3119 3118 3117 3116 3113 3111 3110 3107 3104 3101 3097 3094 3090 3087 3083 3077 3072 3067 3062 3057
3039 3051 3056 3059 3061 3066 3070 3074 3078 3080 3084 3089 3092 3094 3099 3101 3103 3105 3108 3108 3109 3109 3110 3112 3110 3110 3109 3106 3104 3102 3100 3096 3093 3088 3085 3082 3078 3074 3067 3062 3058 3053 3047
3034 3040 3046 3051 3053 3056 3060 3063 3067 3072 3076 3079 3084 3085 3089 3091 3095 3097 3098 3099 3100 3100 3102 3104 3102 3101 3100 3098 3095 3094 3093 3088 3087 3079 3076 3074 3069 3065 3059 3054 3049 3044 3037
3024 3030 3035 3039 3041 3045 3050 3055 3058 3062 3065 3069 3073 3077 3080 3082 3085 3087 3088 3089 3090 3091 3094 3093 3093 3092 3091 3089 3086 3084 3081 3079 3080 3072 3065 3069 3058 3057 3050 3046 3038 3034 3025
3015 3022 3027 3031 3035 3038 3041 3047 3051 3053 3055 3058 3063 3067 3069 3072 3074 3077 3079 3079 3081 3082 3083 3083 3084 3083 3082 3078 3077 3075 3070 3067 3065 3066 3051 3057 3050 3046 3037 3034 3027 3023 3012
3007 3014 3017 3022 3027 3031 3034 3037 3039 3041 3045 3048 3052 3055 3058 3061 3063 3067 3068 3069 3069 3072 3072 3073 3073 3073 3073 3069 3069 3067 3062 3058 3054 3053 3039 3037 3037 3031 3025 3021 3015 3010 2999
2999 3005 3010 3015 3018 3020 3023 3027 3028 3031 3034 3037 3040 3045 3047 3050 3053 3056 3056 3058 3060 3059 3061 3063 3063 3064 3063 3061 3060 3057 3053 3049 3046 3045 3031 3021 3025 3017 3012 3007 3001 2996 2986
2992 2997 3000 3005 3008 3011 3013 3016 3017 3021 3023 3027 3031 3033 3035 3038 3042 3043 3044 3046 3047 3048 3050 3052 3054 3055 3054 3052 3049 3047 3042 3038 3034 3035 3024 3014 3013 3004 3000 2996 2988 2982 2971
2982 2986 2991 2995 2999 3002 3004 3006 3009 3011 3013 3017 3019 3021 3024 3026 3028 3030 3031 3034 3036 3040 3040 3042 3044 3045 3044 3042 3040 3036 3032 3029 3025 3020 3015 3004 3001 2991 2983 2982 2975 2970 2959